Regional Weather Roundup
Issued by NWS

Home | Current Version | Previous Version | Text Only | Print | Product List | Glossary On
Versions: 1 2 3 4 5 6 7 8 9 10 11 12 13 14 15 16 17 18 19 20 21 22 23 24 25 26 27 28 29 30 31 32 33 34 35 36 37 38 39 40 41 42 43 44 45 46 47 48 49 50
000
ASUS43 KMKX 221511
RWRWI

WISCONSIN REGIONAL WEATHER ROUNDUP
NATIONAL WEATHER SERVICE MILWAUKEE/SULLIVAN WI
900 AM CST MON DEC 22 2014

NOTE: "FAIR" INDICATES FEW OR NO CLOUDS BELOW 12,000 FEET WITH NO
SIGNIFICANT WEATHER AND/OR OBSTRUCTIONS TO VISIBILITY.

WIZ001-002-006>008-014>016-023>028-221600-
NORTHWEST WISCONSIN

CITY           SKY/WX    TMP DP  RH WIND       PRES   REMARKS
SUPERIOR ARPT  CLOUDY    35  34  96 E5        29.73S FOG     WCI  31
ASHLAND        CLOUDY    36  33  89 SE3       29.76F
HAYWARD        CLOUDY    34  32  92 SE6       29.73S FOG     WCI  29
SIREN          LGT RAIN  35  34  96 SE12G17   29.70S WCI  27
CUMBERLAND     FOG       32  32 100 SE13G18   29.71S VSB 3/4 WCI  22
RICE LAKE      CLOUDY    34  33  96 SE14      29.74S FOG     WCI  24
CHETEK         CLOUDY    33  33  98 SE15      29.74S FOG     WCI  23
LADYSMITH      CLOUDY    34  33  96 SE12      29.77F FOG     WCI  25
EAU CLAIRE     CLOUDY    35  32  88 SE8       29.74F FOG     WCI  29
MENOMONIE      CLOUDY    35  34  96 SE10      29.73F FOG     WCI  27
NEW RICHMOND   CLOUDY    35  35 100 SE12      29.69F FOG     WCI  26
OSCEOLA        CLOUDY    36  36 100 SE10G17   29.71F FOG     WCI  28
$$

WIZ003>005-009-010-017-018-221600-
NORTH CENTRAL WISCONSIN

CITY           SKY/WX    TMP DP  RH WIND       PRES   REMARKS
MANITOWISH WTR CLOUDY    32  32 100 SE9       29.79S FOG     WCI  24
ARBOR VITAE    CLOUDY    34  32  94 SE13      29.79S FOG     WCI  25
WOODRUFF       CLOUDY    34  32  94 SE13      29.79S FOG     WCI  25
RHINELANDER    CLOUDY    31  30  96 SE9       29.82S FOG     WCI  23
EAGLE RIVER    CLOUDY    32  32 100 SE6       29.82S FOG     WCI  26
LAND O LAKES   CLOUDY    32  32 100 SE7       29.82S FOG     WCI  26
PHILLIPS       CLOUDY    32  31  98 S9        29.77S FOG     WCI  24
TOMAHAWK       CLOUDY    32  31  96 SE5       29.81F FOG     WCI  27
MEDFORD        CLOUDY    32  31  96 SE6       29.78F FOG     WCI  26
MERRILL        CLOUDY    32  32  99 SE7       29.82F FOG     WCI  26
$$

WIZ029-030-035-036-043>047-221600-
CENTRAL WISCONSIN

CITY           SKY/WX    TMP DP  RH WIND       PRES   REMARKS
WAUSAU         CLOUDY    33  30  88 SE9       29.82S FOG     WCI  25
MOSINEE        CLOUDY    32  32 100 SE8       29.83F FOG     WCI  25
MARSHFIELD     CLOUDY    34  31  88 SE12      29.80F FOG     WCI  25
STEVENS POINT  CLOUDY    32  30  93 SE7       29.84F FOG     WCI  25
WAUPACA        CLOUDY    36  32  87 E6        29.87F FOG     WCI  31
WAUTOMA        CLOUDY    34  33  96 SE8       29.86F FOG     WCI  27
WISC RAPIDS    CLOUDY    34  30  85 SE8       29.84F FOG     WCI  27
CAMP DOUGLAS   CLOUDY    34  34 100 E9        29.80F FOG     WCI  26
$$

WIZ011>013-019>022-031-037>040-048>050-221600-
NORTHEAST WISCONSIN

CITY           SKY/WX    TMP DP  RH WIND       PRES   REMARKS
ANTIGO         CLOUDY    30  30  99 SE10      29.84S FOG     WCI  21
SHAWANO        LGT RAIN  36  32  87 SE9       29.89F WCI  29
OCONTO         CLOUDY    34  34 100 SE7       29.92S WCI  28
STURGEON BAY   CLOUDY    36  30  80 SE14      29.95F WCI  27
GREEN BAY      LGT RAIN  35  33  92 S12       29.91F FOG     WCI  27
MANITOWOC      CLOUDY    37  34  89 S12       29.94F WCI  29
APPLETON       CLOUDY    34  34 100 SE12      29.90S FOG     WCI  25
CLINTONVILLE   CLOUDY    34  32  93 SE10      29.88F FOG     WCI  26
OSHKOSH        CLOUDY    34  30  85 SE10      29.88F FOG     WCI  26
$$

WIZ032>034-041-042-053>061-221600-
SOUTHWEST WISCONSIN

CITY           SKY/WX    TMP DP  RH WIND       PRES   REMARKS
LA CROSSE      CLOUDY    38  32  79 SE10      29.76F WCI  31
SPARTA         CLOUDY    36  32  86 E8        29.79F FOG     WCI  29
VIROQUA        CLOUDY    34  34 100 SE12      29.75F WCI  25
BOSCOBEL       CLOUDY    37  31  78 VRB5      29.80S HAZE    WCI  33
PRAIRIE DU CHI CLOUDY    36  31  85 E8        29.76F HAZE    WCI  29
PLATTEVILLE    CLOUDY    34  32  92 E12       29.79F WCI  25
$$

WIZ056-057-062-063-064-067-068-221600-
SOUTH CENTRAL WISCONSIN

CITY           SKY/WX    TMP DP  RH WIND       PRES   REMARKS
REEDSBURG      CLOUDY    34  32  90 SE6       29.81F FOG     WCI  29
BARABOO/DELLS  CLOUDY    34  31  89 SE5       29.82S FOG     WCI  30
LONE ROCK      CLOUDY    39  31  72 E10       29.82F HAZE    WCI  32
MINERAL POINT  CLOUDY    34  32  93 E9        29.79S FOG     WCI  26
MADISON        CLOUDY    34  30  85 SE7       29.85S FOG     WCI  28
MIDDLETON      CLOUDY    35  32  90 SE9       29.84S WCI  27
WATERTOWN      CLOUDY    32  31  96 E8        29.87F FOG     WCI  25
MONROE         CLOUDY    32  32 100 E8        29.81F FOG     WCI  25
JANESVILLE     CLOUDY    36  30  80 SE8       29.85F WCI  29
$$

WIZ051-052-058>065-066-070>072-221600-
SOUTHEAST WISCONSIN

CITY           SKY/WX    TMP DP  RH WIND       PRES   REMARKS
MILWAUKEE      PTSUNNY   37  31  78 SE13      29.91F HAZE    WCI  29
WAUKESHA       CLOUDY    32  28  86 SE8       29.90F FOG     WCI  25
MILWAUKEE/TIMM CLOUDY    36  30  80 SE6       29.92F HAZE    WCI  31
RACINE         CLOUDY    36  31  82 SE12      29.93F WCI  28
BURLINGTON     CLOUDY    32  28  88 SE9       29.89F FOG     WCI  24
KENOSHA        CLOUDY    35  31  85 SE10      29.90F FOG     WCI  27
FOND DU LAC    CLOUDY    34  29  82 SE8       29.88F HAZE    WCI  27
SHEBOYGAN      CLOUDY    37  32  82 SE8G17    29.92F HAZE    WCI  31
WEST BEND      CLOUDY    34  30  86 SE8       29.90F HAZE    WCI  27
JUNEAU         CLOUDY    32  30  92 E12       29.88F FOG     WCI  23
$$

LSZ147-162-221600-
LAKE SUPERIOR

STATION/POSITION TIME  TEMP    WIND        PRES    WAVE
                       AIR SEA DIR/SP/G            HT/PER
                 (UTC) (F)     (DEG/KT/KT) (MB)    (FT/S)
DEVILS ISLAND    1500   35     140/ 10/ 12 1008.7F
PORT WING        1400   36     170/  2/  7 1007.5R
SAXON HARBOR     1440   38     180/  3/ 12 1007.8F
$$

LMZ867-665-643>646-221600-
LAKE MICHIGAN

STATION/POSITION TIME  TEMP    WIND        PRES    WAVE
                       AIR SEA DIR/SP/G            HT/PER
                 (UTC) (F)     (DEG/KT/KT) (MB)    (FT/S)
CHAMBERS ISLAND  1400   36     130/  8/ 11 1014.2S
NORTHPORT PIER   1400   36     150/ 11/ 17 1014.9R
SISTER BAY       1413          180/ 14/ 18   N/A
ALGOMA LAKESHORE 1415          210/ 22/ 32   N/A
KEWAUNEE LAKESHO 1400   37     170/ 19/ 22 1013.5R
SHEBOYGAN LAKESH 1500   37 37  150/ 18/ 20 1014.1F
PORT WASHINGTON  1440   38     150/ 12/ 15 1014.2F
MILWAUKEE LAKESH 1400   36     150/ 13/ 15   N/A
KENOSHA   LAKESH 1500   36     140/ 14/ 17 1012.9F
$$

TC  - TEMPERATURE IN CELSIUS
VSB - VISIBILITY IN STATUTE MILES
WCI - WIND CHILL INDEX
HX  - HEAT INDEX




USA.gov is the U.S. government's official web portal to all federal, state and local government web resources and services.